Location: Newark
(7.0858°N, 171.3717°E)
Time: 21:59:42
(UTC+00:00)

Tiros 1 despin weight - Visible Passes

Search period start: 25 November 2020 00:00
Search period end: 05 December 2020 00:00
Orbit: 593 x 642 km, 48.2° (Epoch: 25 November)

Date Brightness Start Highest point End Pass type
(mag) Time Alt. Az. Time Alt. Az. Time Alt. Az.
01 Dec ? 07:19:17 10° N 07:22:44 25° NE 07:22:44 25° NE visible
02 Dec ? 07:34:58 10° NNW 07:39:31 68° NE 07:41:16 36° ESE visible
03 Dec ? 07:51:31 10° WNW 07:55:51 42° SW 08:00:09 10° SSE visible
04 Dec ? 08:09:20 10° W 08:12:11 16° SW 08:15:00 10° SSW visible
